| time (UTC) | temp F | wind direction | speed knots | gust knots | rain 1hr in | rain 24hr in | rain mn in | humidity % | barometer mb |
| 20260502220003 | 74 | 71 | 0.9 | 0.0 | 0.00 | 0.00 | 0.00 | 48 | 1018.7 |
| 20260502214506 | 74 | 55 | 1.7 | 0.0 | 0.00 | 0.00 | 0.00 | 45 | 1018.7 |
| 20260502213002 | 74 | 67 | 1.7 | 0.0 | 0.00 | 0.00 | 0.00 | 43 | 1018.9 |
| 20260502211505 | 74 | 65 | 0.9 | 0.0 | 0.00 | 0.00 | 0.00 | 48 | 1019.1 |
| 20260502210004 | 74 | 57 | 1.7 | 0.0 | 0.00 | 0.00 | 0.00 | 44 | 1019.4 |
| 20260502204618 | 74 | 89 | 1.7 | 0.0 | 0.00 | 0.00 | 0.00 | 45 | 1019.7 |
| 20260502203059 | 74 | 24 | 1.7 | 0.0 | 0.00 | 0.00 | 0.00 | 46 | 1019.8 |
| 20260502201557 | 73 | 12 | 1.7 | 0.0 | 0.00 | 0.00 | 0.00 | 43 | 1020.0 |
| 20260502200056 | 73 | 52 | 1.7 | 0.0 | 0.00 | 0.00 | 0.00 | 46 | 1020.0 |
| 20260502194552 | 72 | 33 | 1.7 | 0.0 | 0.00 | 0.00 | 0.00 | 45 | 1019.9 |
| 20260502193052 | 72 | 43 | 1.7 | 0.0 | 0.00 | 0.00 | 0.00 | 46 | 1020.1 |
| 20260502191549 | 71 | 54 | 1.7 | 0.0 | 0.00 | 0.00 | 0.00 | 51 | 1020.1 |
| 20260502190046 | 71 | 50 | 1.7 | 0.0 | 0.00 | 0.00 | 0.00 | 55 | 1020.1 |
| 20260502184554 | 70 | 79 | 1.7 | 0.0 | 0.00 | 0.00 | 0.00 | 54 | 1020.4 |
| 20260502183044 | 70 | 72 | 1.7 | 0.0 | 0.00 | 0.00 | 0.00 | 51 | 1020.6 |
| 20260502181545 | 70 | 297 | 1.7 | 0.0 | 0.00 | 0.00 | 0.00 | 53 | 1020.8 |
| 20260502163031 | 66 | 33 | 1.7 | 0.0 | 0.00 | 0.00 | 0.00 | 63 | 1022.0 |
| 20260502161526 | 64 | 10 | 1.7 | 0.0 | 0.00 | 0.00 | 0.00 | 62 | 1022.1 |
| 20260502151516 | 62 | 30 | 0.9 | 0.0 | 0.00 | 0.00 | 0.00 | 71 | 1022.0 |
| 20260502123048 | 47 | 301 | 0.0 | 0.0 | 0.00 | 0.00 | 0.00 | 93 | 1020.4 |
| 20260502121550 | 47 | 303 | 0.0 | 0.0 | 0.00 | 0.00 | 0.00 | 93 | 1020.1 |
| 20260502114538 | 47 | 320 | 0.0 | 0.0 | 0.00 | 0.00 | 0.00 | 92 | 1019.6 |
| 20260502113038 | 47 | 338 | 0.0 | 0.0 | 0.00 | 0.00 | 0.00 | 92 | 1019.4 |
| 20260502111539 | 47 | 338 | 0.0 | 0.0 | 0.00 | 0.00 | 0.00 | 91 | 1019.3 |
| 20260502110036 | 47 | 338 | 0.0 | 0.0 | 0.00 | 0.00 | 0.00 | 91 | 1019.0 |
| 20260502104530 | 48 | 338 | 0.0 | 0.0 | 0.00 | 0.00 | 0.00 | 91 | 1018.8 |
| 20260502103028 | 48 | 338 | 0.0 | 0.0 | 0.00 | 0.00 | 0.00 | 91 | 1018.5 |
| 20260502101526 | 49 | 357 | 0.0 | 0.0 | 0.00 | 0.00 | 0.00 | 91 | 1018.1 |
| 20260502091519 | 49 | 347 | 0.9 | 0.0 | 0.00 | 0.00 | 0.00 | 92 | 1017.6 |
| 20260502071511 | 50 | 352 | 0.9 | 0.0 | 0.00 | 0.00 | 0.00 | 92 | 1017.4 |
| 20260502070019 | 50 | 323 | 0.0 | 0.0 | 0.00 | 0.00 | 0.00 | 92 | 1017.4 |
| 20260502064507 | 50 | 4 | 0.0 | 0.0 | 0.00 | 0.00 | 0.00 | 91 | 1017.3 |
| 20260502063006 | 50 | 322 | 0.0 | 0.0 | 0.00 | 0.00 | 0.00 | 91 | 1017.3 |
| 20260502061504 | 51 | 322 | 0.0 | 0.0 | 0.00 | 0.00 | 0.00 | 91 | 1017.3 |
| 20260502060002 | 51 | 16 | 0.9 | 0.0 | 0.00 | 0.00 | 0.00 | 91 | 1017.5 |
| 20260502054501 | 51 | 20 | 0.9 | 0.0 | 0.00 | 0.00 | 0.00 | 91 | 1017.4 |
| 20260502053100 | 51 | 354 | 0.0 | 0.0 | 0.00 | 0.00 | 0.00 | 91 | 1017.2 |
| 20260502051558 | 52 | 34 | 0.0 | 0.0 | 0.00 | 0.00 | 0.00 | 91 | 1017.2 |
| 20260502050101 | 52 | 353 | 0.0 | 0.0 | 0.00 | 0.00 | 0.00 | 91 | 1017.1 |
| 20260502044555 | 52 | 355 | 0.0 | 0.0 | 0.00 | 0.00 | 0.89 | 90 | 1017.0 |
| 20260502043100 | 53 | 358 | 0.0 | 0.0 | 0.00 | 0.00 | 0.89 | 90 | 1017.0 |
| 20260502041553 | 53 | 360 | 0.0 | 0.0 | 0.00 | 0.00 | 0.89 | 90 | 1017.0 |
| 20260502040055 | 53 | 35 | 0.0 | 0.0 | 0.00 | 0.00 | 0.89 | 89 | 1016.8 |
| 20260502034554 | 53 | 10 | 0.9 | 0.0 | 0.00 | 0.00 | 0.89 | 89 | 1017.1 |
| 20260502033050 | 53 | 18 | 0.9 | 0.0 | 0.00 | 0.00 | 0.89 | 89 | 1017.0 |
| 20260502031549 | 53 | 42 | 0.9 | 0.0 | 0.00 | 0.00 | 0.89 | 89 | 1016.9 |
| 20260502030052 | 53 | 7 | 0.9 | 0.0 | 0.00 | 0.00 | 0.89 | 89 | 1016.7 |
| 20260502024550 | 53 | 27 | 0.9 | 0.0 | 0.00 | 0.00 | 0.89 | 89 | 1016.5 |
| 20260502023049 | 53 | 29 | 1.7 | 0.0 | 0.00 | 0.00 | 0.89 | 88 | 1016.3 |
| 20260502021541 | 53 | 36 | 0.9 | 0.0 | 0.00 | 0.00 | 0.89 | 89 | 1016.0 |
| 20260502020038 | 53 | 56 | 0.9 | 0.0 | 0.00 | 0.00 | 0.89 | 89 | 1015.4 |
| 20260502014536 | 53 | 22 | 0.9 | 0.0 | 0.00 | 0.00 | 0.89 | 89 | 1015.2 |
| 20260502013042 | 53 | 35 | 1.7 | 0.0 | 0.00 | 0.00 | 0.89 | 88 | 1015.0 |
| 20260502011534 | 53 | 49 | 1.7 | 0.0 | 0.00 | 0.00 | 0.89 | 88 | 1014.8 |
| 20260502010030 | 53 | 55 | 1.7 | 0.0 | 0.00 | 0.00 | 0.89 | 89 | 1014.5 |
| 20260502004547 | 53 | 55 | 2.6 | 0.0 | 0.00 | 0.00 | 0.89 | 90 | 1014.2 |
| 20260502003027 | 53 | 33 | 2.6 | 0.0 | 0.00 | 0.00 | 0.89 | 91 | 1014.1 |
| 20260502001527 | 53 | 24 | 2.6 | 0.0 | 0.00 | 0.00 | 0.89 | 91 | 1013.7 |
| 20260502000043 | 53 | 50 | 2.6 | 0.0 | 0.00 | 0.00 | 0.89 | 92 | 1013.5 |
| 20260501234530 | 53 | 48 | 2.6 | 0.0 | 0.00 | 0.00 | 0.89 | 92 | 1013.9 |
| 20260501233022 | 54 | 4 | 2.6 | 0.0 | 0.00 | 0.00 | 0.89 | 93 | 1013.5 |
| 20260501231535 | 54 | 41 | 2.6 | 0.0 | 0.00 | 0.00 | 0.89 | 93 | 1012.8 |
| 20260501230021 | 54 | 56 | 2.6 | 0.0 | 0.00 | 0.00 | 0.89 | 93 | 1013.1 |
| 20260501224518 | 54 | 27 | 3.5 | 0.0 | 0.00 | 0.00 | 0.88 | 93 | 1012.9 |
| 20260501223015 | 55 | 355 | 2.6 | 0.0 | 0.00 | 0.00 | 0.88 | 93 | 1012.6 |
| 20260501221518 | 55 | 14 | 2.6 | 0.0 | 0.00 | 0.00 | 0.87 | 93 | 1012.6 |